Home   Weather   Portugal   Porto   Past weeks
Flag for Portugal

Past Weather in Porto, Portugal — Yesterday and Last 2 Weeks

Currently: 63 °F. Mostly cloudy. (Weather station: Porto / Pedras Rubras, Portugal). See more current weather

Past Weather in Porto — Graph

°F

Porto Temperature Yesterday

Maximum temperature yesterday: 68 °F (at 2:30 pm)
Minimum temperature yesterday: 63 °F (at 3:00 am)
Average temperature yesterday: 65 °F

High & Low Weather Summary for the Past Weeks

 TemperatureHumidityPressure
High86 °F (May 14, 3:00 pm)100% (May 6, 1:30 am)30.21 "Hg (May 6, 1:30 am)
Low48 °F (May 3, 6:00 am)33% (May 7, 10:30 am)29.83 "Hg (May 14, 3:30 pm)
Average62 °F80%30.07 "Hg
* Reported May 3 1:00 am — May 18 1:00 am, Porto. Weather by CustomWeather, © 2022

Note: Actual official high and low records may vary slightly from our data, if they occured in-between our weather recording intervals... More about our weather records

Porto Weather History for the Previous 24 Hours

Scroll right to see more
 ConditionsComfort  
Time TempWeatherWind HumidityBarometerVisibility
1:00 am
Wed, May 18
63 °FMostly cloudy.5 mph100%30.09 "HgN/A
12:30 am63 °FPartly cloudy.7 mph100%30.09 "HgN/A
12:00 am61 °FPartly cloudy.7 mph100%30.09 "HgN/A
11:30 pm
Tue, May 17
63 °FOvercast.7 mph100%30.09 "HgN/A
11:00 pm63 °FFog.6 mph100%30.12 "HgN/A
10:30 pm63 °FFog.6 mph100%30.12 "HgN/A
10:00 pm63 °FFog.6 mph100%30.12 "HgN/A
9:00 pm64 °FFog.6 mph94%30.12 "HgN/A
8:30 pm64 °FFog.6 mph94%30.12 "HgN/A
8:00 pm64 °FPassing clouds.6 mph94%30.12 "HgN/A
7:30 pm66 °FScattered clouds.8 mph94%30.12 "HgN/A
7:00 pm66 °FScattered clouds.8 mph88%30.12 "HgN/A
6:30 pm66 °FPartly sunny.9 mph88%30.12 "HgN/A
6:00 pm66 °FPartly sunny.9 mph88%30.12 "HgN/A
5:30 pm66 °FBroken clouds.8 mph88%30.12 "HgN/A
5:00 pm66 °FBroken clouds.9 mph83%30.15 "HgN/A
4:30 pm66 °FPartly sunny.7 mph83%30.15 "HgN/A
4:00 pm66 °FPartly sunny.10 mph83%30.15 "HgN/A
3:30 pm66 °FPartly sunny.10 mph88%30.15 "HgN/A
3:00 pm66 °FPartly sunny.12 mph88%30.15 "HgN/A
2:30 pm68 °FPartly sunny.14 mph83%30.15 "HgN/A
2:00 pm66 °FPartly sunny.15 mph88%30.15 "HgN/A
1:30 pm66 °FPartly sunny.14 mph94%30.15 "HgN/A
12:30 pm64 °FDrizzle. Fog.16 mph94%30.15 "Hg1 mi
12:00 pm64 °FDrizzle. Broken clouds.14 mph94%30.15 "Hg2 mi
11:30 am66 °FPartly sunny.15 mph83%30.15 "HgN/A
11:00 am66 °FPartly sunny.17 mph83%30.12 "HgN/A
10:30 am66 °FPartly sunny.17 mph83%30.12 "HgN/A
10:00 am64 °FPartly sunny.17 mph88%30.12 "HgN/A
9:30 am64 °FBroken clouds.17 mph88%30.12 "HgN/A
9:00 am64 °FDrizzle. Broken clouds.20 mph88%30.12 "Hg4 mi
8:30 am63 °FDrizzle. Broken clouds.15 mph100%30.12 "HgN/A
8:00 am63 °FBroken clouds.16 mph100%30.12 "HgN/A
7:30 am63 °FPartly sunny.14 mph100%30.09 "HgN/A
7:00 am64 °FPartly sunny.14 mph94%30.09 "HgN/A
6:30 am64 °FPartly sunny.15 mph94%30.09 "HgN/A
6:00 am64 °FPassing clouds.13 mph94%30.07 "HgN/A
5:30 am64 °FPartly cloudy.14 mph94%30.07 "HgN/A
5:00 am63 °FPassing clouds.14 mph100%30.07 "HgN/A
4:30 am63 °FPassing clouds.14 mph100%30.07 "HgN/A
4:00 am63 °FPassing clouds.15 mph100%30.07 "Hg4 mi
3:30 am63 °FLight rain. Partly cloudy.13 mph100%30.07 "HgN/A
3:00 am63 °FLight rain. Partly cloudy.15 mph100%30.07 "HgN/A
2:30 am64 °FPartly cloudy.16 mph94%30.09 "HgN/A
2:00 am64 °FPartly cloudy.14 mph94%30.09 "HgN/A
Weather by CustomWeather, © 2022

See weather overview